Погода Имени Попова

Погода Имени Попова : погода сейчас, прогноз погоды и архив. Всё, что Вы хотите узнать о погоде Имени Попова!

Поиск расширенной информации на нашем сайте:

Другие новости

Новости СМИ2

Главная страница сайта

Новости сайта

03.07.2017

Напоминаем, что на нашем специализированном сайте Метеоцентр.Азия вы можете получить высокодетализированные автоматические прогнозы погоды по пунктам России, СНГ и мира в авиационном формате (включающие направление и скорость ветра, видимость, явления погоды, количество и форму облачности, нижнюю и верхнюю границу облачности).

Рекомендуем: Юридический перевод украинского паспорта http://www.english-perewod.ru.

Погода Имени Попова - сегодня

Время (UTC), дата Ветер
(°,м/с) 
Видим.   Явления Облачность Т
(°С)
Тd
(°С)
f(%) Тe
(°С)
Pmin
(гПа)
dP
(гПа)
Po
(мм)
O2
(г/м3)
Тmin Tmax R s Состояние
почвы
09 21.11.17 110 (В) 20000 м    9/9 800 м 
[Sc]
-16.2 -18 86 -23  1032  1.1  773  333           
12 21.11.17 090 (В) 20000 м    ясно 
-20.1 -21.9 86 -26  1033.3  1.1  774  339           
15 21.11.17 080 (В) 20000 м    ясно 
-20 -21.7 86 -26  1034.5  1.3  775  339    -14.9       
18 21.11.17 090 (В) 20000 м    ясно 
-20.6 -22.5 85 -23  1035.3  0.7  776  340           
21 21.11.17 070 (В) 20000 м    10/0 средняя 
[Ac und]
-17 -18.5 88 -19  1036.1  0.8  776  335           
03 22.11.17 050 (СВ) 20000 м    10/10 900 м 
[Sc]
-12.2 -14.4 84 -16  1036.4  0.2  777  329  -22.2    0.2  23  неравномерный
сухой снег
100% 
12 22.11.17 080 (В) 20000 м  {снег}  10/10 800 м 
[Sc]
-14.5 -17.7 77 -20  1038.1  0.6  778  333           
15 22.11.17 090 (В) 3{12}  20000 м    10/10 1230 м 
[Sc]
-13.5 -16.1 81 -17  1038.6  0.4  778  331    -12.1  0.0     
18 22.11.17 100 (В) 20000 м    10/0 средняя 
[Ac und]
-12.8 -14.7 86 -16  1039.2  0.6  779  331           
21 22.11.17 060 (СВ) 9-11{12}  4000 м  слаб. снег  10/10 660 м 
[Ns]
-13 -14.3 90 -21  1039.4  0.2  779  331           
00 23.11.17 100 (В) 7{13}  4000 м  слаб. снег  10/10 800 м 
[Ns]
-14.2 -16.2 85 -21  1039.7  0.3  779  333           
03 23.11.17 090 (В) 8{12}  1000 м  позёмок{снег}  10/10 600 м 
[Sc]
-14.8 -16.7 85 -22  1039.8  0.1  779  333  -14.9    0.2  20  неравномерный
сухой снег
100% 
06 23.11.17 070 (В) 4{11}  20000 м  {снег}  9/9 720 м 
[Sc]
-16.6 -18.5 85 -22  1040.2  0.4  780  336  -18.2         
12 23.11.17 090 (В) 20000 м    ясно 
-19.4 -21 87 -26  1039.8  -0.3  779  340           
18 23.11.17 080 (В) 20000 м    ясно 
-21.3 -23.3 84 -28  1038.3  -0.9  778  342           
21 23.11.17 070 (В) 20000 м    ясно 
-21.5 -23.5 84 -29  1036.5  -1.7  777  341           
00 24.11.17 070 (В) 20000 м    ясно 
-20.6 -22.5 85 -28  1034.6  -1.9  775  340           
03 24.11.17 080 (В) 20000 м    ясно 
-20.3 -22.3 84 -28  1032.6  -2  774  339  -22.5      20  неравномерный
сухой снег
100% 
06 24.11.17 070 (В) 20000 м    1/0 средняя 
[Ac As]
-20.1 -21.9 86 -27  1030.7  -1.9  772  338           
12 24.11.17 060 (СВ) 20000 м    ясно 
-19 -21.2 83 -27  1027.7  -1.4  770  335           
15 24.11.17 060 (СВ) 20000 м    ясно 
-18.6 -21 81 -26  1026.7  -1  769  334    -18.6       
18 24.11.17 040 (СВ) 20000 м    6/0 средняя 
[Ac As]
-18.7 -20.4 86 -26  1026.1  -0.6  769  334           
21 24.11.17 040 (СВ) 20000 м    ясно 
-20.4 -22.2 85 -27  1026.1  769  337           
00 25.11.17 030 (СВ) 20000 м    10/10 450 м 
[Sc]
-19.1 -20.8 86 -23  1025.6  -0.5  769  335           
03 25.11.17 020 (С) 10 км  слаб. снег  10/10 420 м 
[Ns]
-16.6 -18.1 88 -20  1025  -0.5  768  331  -21.2    0.0  20  неравномерный
сухой снег
100% 
Время (UTC), дата Ветер
(°,м/с) 
Видим.   Явления Облачность Т
(°С)
Тd
(°С)
f(%) Тe
(°С)
Pmin
(гПа)
dP
(гПа)
Po
(мм)
O2
(г/м3)
Тmin Tmax R s Состояние
почвы

Для получения пояснительной информации подведите курсор к названию столбца.

ПОГОДА Имени Попова - архив

Всё, что Вы хотите узнать о погоде Имени Попова - удобно и подробно!

Выберите нужную дату (начиная с 1 января 2015* года) и нажмите кнопку "Найти".
Будут отображены архивные сводки погоды по пункту Имени Попова, начиная с указанной даты.


Отображать данные в формате CSV (для использования в таблицах Excel)


Внимание! Наш архив погоды предназначен исключительно для личного некоммерческого использования в познавательных целях. Если Вам необходимы официальные справки о состоянии погоды (для производственных, юридических, коммерческих и т.п. целей), обращайтесь в органы Росгидромета.

*Примечание: данная дата относится к архиву по метеостанциям СССР (Россия, СНГ, Балтия).
Архив по метеостанциям Зарубежной Европы и Азии (кроме Китая) хранится 10 дней, по другим регионам земного шара (Китай, Африка, Америка, Австралия, Океания) - 1 день.

Имени Попова - район местоположения метеостанции


Название, широта, долгота, высота метеостанции:
Имени Попова 73.3°ш. 70.1°д. 7 м над ур. моря [Российская Федерация]

Дополнительная информация

В oтличие oт бoльшинства пoгoдных сайтoв мы публикуем пoдрoбную метеoинфoрмацию в детальнoм прoфессиoнальнoм фoрмате.

Характеристики температуры и влажнoсти вoздуха измеряются на высoте 2 м в тени вдали oт зданий и деревьев.
Скoрoсть ветра измеряется на высoте 10 м (на урoвне рoста челoвека скoрoсть ветра ниже в 1.5-2 раза). Если метеoстанция нахoдится в гoрoде или в лесу, тo скoрoсть ветра занижена на 2-4 м/с пo сравнению с oткрытым местoм. Скoрoсть ветра над акватoриями крупных рек и oзёр, а также на вершинах хoлмoв на 2-5 м/с выше, чем в oбычных услoвиях.
Атмoсфернoе давление в разных тoчках местнoсти мoжет значительнo oтличаться oт давления на метеoстанции, в зависимoсти oт услoвий рельефа (при пoдъёме на 10 м давление пoнижается примернo на 1 мм рт.ст.).